EW5286 Weather Reports


Display with metric or nautical units.
time (UTC)temp
F
wind
direction
speed
MPH
gust
MPH
rain 1hr
in
rain 24hr
in
rain mn
in
humidity
%
barometer
mb
20260831014434 85 196 2.0 5.0 0.00 0.00 0.00 53 1015.1
20260831013937 86 240 2.0 5.0 0.00 0.00 0.00 52 1015.1
20260831013429 86 259 2.0 5.0 0.00 0.00 0.00 52 1015.0
20260831013038 85 238 1.0 6.0 0.00 0.00 0.00 52 1013.4
20260831012936 86 132 2.0 6.0 0.00 0.00 0.00 52 1015.0
20260831012437 86 185 2.0 6.0 0.00 0.00 0.00 51 1014.9
20260831011929 86 172 1.0 5.0 0.00 0.00 0.00 51 1015.0
20260831011550 86 238 1.0 5.0 0.00 0.00 0.00 51 1013.3
20260831011456 86 255 1.0 5.0 0.00 0.00 0.00 51 1015.0
20260831010947 86 188 1.0 4.0 0.00 0.00 0.00 50 1015.0
20260831010428 87 156 1.0 4.0 0.00 0.00 0.00 50 1015.0
20260831010008 86 210 0.0 3.0 0.00 0.00 0.00 49 1013.3
20260831005937 87 160 1.0 3.0 0.00 0.00 0.00 49 1014.9
20260831005428 87 257 1.0 5.0 0.00 0.00 0.00 49 1014.9
20260831004930 87 265 1.0 6.0 0.00 0.00 0.00 48 1014.8
20260831004516 87 349 0.0 6.0 0.00 0.00 0.00 48 1013.2
20260831004442 88 348 1.0 6.0 0.00 0.00 0.00 48 1014.9
20260831003923 88 172 2.0 5.0 0.00 0.00 0.00 47 1014.8
20260831003429 88 260 1.0 4.0 0.00 0.00 0.00 47 1014.8
20260831003025 88 158 0.0 4.0 0.00 0.00 0.00 46 1013.2
20260831002942 88 179 0.0 4.0 0.00 0.00 0.00 46 1014.9
20260831002431 89 236 0.0 5.0 0.00 0.00 0.00 45 1014.9
20260831001934 89 205 1.0 5.0 0.00 0.00 0.00 44 1014.8
20260831001511 89 231 0.0 4.0 0.00 0.00 0.00 43 1013.1
20260831001424 90 179 0.0 3.0 0.00 0.00 0.00 43 1014.8
20260831000936 90 221 1.0 4.0 0.00 0.00 0.00 43 1014.8
20260831000439 90 245 1.0 6.0 0.00 0.00 0.00 42 1014.8
20260831000024 90 196 2.0 6.0 0.00 0.00 0.00 42 1013.2
20260830235948 90 179 2.0 6.0 0.00 0.00 0.00 42 1014.9
20260830235437 91 225 1.0 5.0 0.00 0.00 0.00 42 1014.9
20260830234948 91 205 3.0 6.0 0.00 0.00 0.00 41 1014.9
20260830234549 91 205 2.0 6.0 0.00 0.00 0.00 41 1013.3
20260830234427 91 222 1.0 5.0 0.00 0.00 0.00 41 1015.0
20260830233939 91 224 2.0 5.0 0.00 0.00 0.00 41 1015.0
20260830233430 91 240 2.0 7.0 0.00 0.00 0.00 40 1015.1
20260830233034 91 224 2.0 7.0 0.00 0.00 0.00 40 1013.3
20260830232957 91 181 2.0 7.0 0.00 0.00 0.00 40 1015.0
20260830232447 91 179 3.0 8.0 0.00 0.00 0.00 40 1015.0
20260830231930 92 191 3.0 5.0 0.00 0.00 0.00 39 1015.0
20260830231522 91 200 2.0 5.0 0.00 0.00 0.00 38 1013.3
20260830231441 92 207 2.0 4.0 0.00 0.00 0.00 38 1015.0
20260830230920 92 268 2.0 4.0 0.00 0.00 0.00 38 1015.0
20260830230453 92 176 1.0 7.0 0.00 0.00 0.00 38 1015.0
20260830230015 91 232 3.0 7.0 0.00 0.00 0.00 38 1013.3
20260830225943 92 226 3.0 7.0 0.00 0.00 0.00 38 1015.0
20260830225432 92 188 3.0 8.0 0.00 0.00 0.00 39 1015.0
20260830224934 93 233 2.0 8.0 0.00 0.00 0.00 39 1014.9
20260830224514 92 219 1.0 3.0 0.00 0.00 0.00 39 1013.2
20260830224424 93 191 0.0 4.0 0.00 0.00 0.00 39 1014.9
20260830223935 93 216 1.0 8.0 0.00 0.00 0.00 39 1014.9
20260830223438 93 272 2.0 8.0 0.00 0.00 0.00 39 1015.0
20260830223023 92 243 3.0 7.0 0.00 0.00 0.00 38 1013.3
20260830222927 93 274 4.0 7.0 0.00 0.00 0.00 38 1015.0
20260830222430 93 169 3.0 7.0 0.00 0.00 0.00 38 1014.9
20260830221558 93 228 2.0 7.0 0.00 0.00 0.00 38 1013.3
20260830221503 93 203 4.0 7.0 0.00 0.00 0.00 38 1014.9
20260830220948 93 262 2.0 9.0 0.00 0.00 0.00 38 1014.9
20260830220430 93 259 4.0 9.0 0.00 0.00 0.00 38 1015.0
20260830220027 93 234 4.0 8.0 0.00 0.00 0.00 38 1013.4
20260830215936 94 200 3.0 8.0 0.00 0.00 0.00 38 1015.0
20260830215446 94 140 2.0 7.0 0.00 0.00 0.00 38 1015.0
20260830214927 94 290 2.0 6.0 0.00 0.00 0.00 39 1015.1
20260830214513 93 224 2.0 6.0 0.00 0.00 0.00 38 1013.4
20260830214439 94 196 3.0 8.0 0.00 0.00 0.00 38 1015.1
20260830213930 94 248 3.0 9.0 0.00 0.00 0.00 40 1015.1
20260830213500 94 190 4.0 9.0 0.00 0.00 0.00 39 1015.1
20260830213101 93 226 2.0 10.0 0.00 0.00 0.00 39 1013.5
20260830212941 94 210 4.0 10.0 0.00 0.00 0.00 39 1015.2
20260830212430 94 158 3.0 10.0 0.00 0.00 0.00 39 1015.2
20260830211943 94 137 6.0 10.0 0.00 0.00 0.00 38 1015.3
20260830211504 94 188 3.0 9.0 0.00 0.00 0.00 38 1013.7
20260830211423 94 247 3.0 9.0 0.00 0.00 0.00 38 1015.3
20260830210934 95 167 2.0 9.0 0.00 0.00 0.00 37 1015.4
20260830210446 94 266 4.0 11.0 0.00 0.00 0.00 38 1015.3
20260830210055 94 203 4.0 11.0 0.00 0.00 0.00 37 1013.7
20260830205927 94 199 3.0 8.0 0.00 0.00 0.00 37 1015.4
20260830205437 95 300 4.0 8.0 0.00 0.00 0.00 37 1015.5
20260830204948 95 250 3.0 8.0 0.00 0.00 0.00 38 1015.4
20260830204606 94 229 4.0 10.0 0.00 0.00 0.00 37 1013.9
20260830204429 95 254 4.0 10.0 0.00 0.00 0.00 38 1015.5
20260830203936 95 255 5.0 10.0 0.00 0.00 0.00 37 1015.6
20260830203447 96 212 4.0 8.0 0.00 0.00 0.00 36 1015.6
20260830203004 94 224 3.0 8.0 0.00 0.00 0.00 39 1014.0
20260830202948 95 162 3.0 8.0 0.00 0.00 0.00 39 1015.6
20260830202439 95 247 4.0 9.0 0.00 0.00 0.00 38 1015.7
20260830201931 96 179 4.0 9.0 0.00 0.00 0.00 39 1015.8
20260830201610 95 186 1.0 7.0 0.00 0.00 0.00 38 1014.2
20260830201432 95 137 3.0 7.0 0.00 0.00 0.00 39 1015.9
20260830200922 96 299 2.0 10.0 0.00 0.00 0.00 38 1015.9
20260830200433 95 259 2.0 10.0 0.00 0.00 0.00 39 1015.9
20260830200055 94 153 5.0 12.0 0.00 0.00 0.00 39 1014.3
20260830195945 95 174 4.0 12.0 0.00 0.00 0.00 39 1016.0
20260830195424 95 252 3.0 12.0 0.00 0.00 0.00 40 1016.1
20260830194935 95 198 2.0 10.0 0.00 0.00 0.00 40 1016.1
20260830194551 95 258 4.0 10.0 0.00 0.00 0.00 39 1014.5
20260830194446 95 243 5.0 10.0 0.00 0.00 0.00 39 1016.2
20260830193926 95 215 3.0 9.0 0.00 0.00 0.00 40 1016.2
20260830193438 95 284 2.0 9.0 0.00 0.00 0.00 41 1016.3
20260830193107 95 238 5.0 9.0 0.00 0.00 0.00 39 1014.7
20260830192951 96 234 4.0 6.0 0.00 0.00 0.00 39 1016.3
20260830192451 96 211 1.0 11.0 0.00 0.00 0.00 40 1016.4
20260830191921 95 229 4.0 11.0 0.00 0.00 0.00 39 1016.4
20260830191543 94 200 2.0 6.0 0.00 0.00 0.00 40 1014.8
20260830191448 95 167 2.0 5.0 0.00 0.00 0.00 40 1016.4
20260830190938 94 66 1.0 7.0 0.00 0.00 0.00 40 1016.5
20260830190447 95 199 4.0 7.0 0.00 0.00 0.00 38 1016.5
20260830190004 96 242 3.0 6.0 0.00 0.00 0.00 37 1014.9
20260830185948 96 240 3.0 6.0 0.00 0.00 0.00 39 1016.4
20260830185444 96 284 0.0 6.0 0.00 0.00 0.00 40 1016.4
20260830184926 95 229 3.0 8.0 0.00 0.00 0.00 41 1016.5
20260830184531 94 240 4.0 8.0 0.00 0.00 0.00 40 1014.9
20260830184436 95 242 4.0 8.0 0.00 0.00 0.00 40 1016.5
20260830183939 95 262 3.0 6.0 0.00 0.00 0.00 40 1016.6
20260830183430 94 197 2.0 4.0 0.00 0.00 0.00 40 1016.6
20260830183041 92 224 0.0 7.0 0.00 0.00 0.00 40 1015.1
20260830182943 93 7 1.0 7.0 0.00 0.00 0.00 40 1016.7
20260830182423 93 181 4.0 8.0 0.00 0.00 0.00 40 1016.8
20260830181935 93 231 5.0 9.0 0.00 0.00 0.00 40 1016.8
20260830181549 93 236 4.0 9.0 0.00 0.00 0.00 40 1015.3
20260830181446 93 252 5.0 9.0 0.00 0.00 0.00 41 1016.9
20260830180927 93 219 4.0 9.0 0.00 0.00 0.00 42 1016.9
20260830180455 93 240 5.0 8.0 0.00 0.00 0.00 43 1017.0
20260830180048 92 276 3.0 8.0 0.00 0.00 0.00 43 1015.4
20260830175946 92 244 4.0 8.0 0.00 0.00 0.00 42 1017.0
20260830175426 93 220 4.0 9.0 0.00 0.00 0.00 43 1017.0
20260830174937 92 216 5.0 8.0 0.00 0.00 0.00 44 1017.1
20260830174545 91 252 5.0 8.0 0.00 0.00 0.00 43 1015.5
20260830174447 92 248 5.0 8.0 0.00 0.00 0.00 43 1017.2
20260830173937 92 227 6.0 9.0 0.00 0.00 0.00 43 1017.2
20260830173507 92 160 6.0 9.0 0.00 0.00 0.00 43 1017.3
20260830173118 91 237 4.0 10.0 0.00 0.00 0.00 43 1015.7
20260830172925 91 236 6.0 10.0 0.00 0.00 0.00 42 1017.4
20260830172437 92 238 6.0 12.0 0.00 0.00 0.00 41 1017.5
20260830171949 92 259 5.0 12.0 0.00 0.00 0.00 42 1017.5
20260830171551 91 243 4.0 11.0 0.00 0.00 0.00 42 1015.9
20260830171429 92 239 5.0 11.0 0.00 0.00 0.00 42 1017.5
20260830170920 91 237 6.0 10.0 0.00 0.00 0.00 42 1017.6
20260830170432 91 253 6.0 9.0 0.00 0.00 0.00 42 1017.7
20260830170101 91 226 5.0 9.0 0.00 0.00 0.00 42 1016.1
20260830165932 91 248 5.0 9.0 0.00 0.00 0.00 43 1017.7
20260830165439 91 235 4.0 8.0 0.00 0.00 0.00 44 1017.7
20260830164928 90 237 3.0 8.0 0.00 0.00 0.00 45 1017.7
20260830164556 90 241 3.0 8.0 0.00 0.00 0.00 45 1016.2
20260830164457 90 220 4.0 8.0 0.00 0.00 0.00 45 1017.9
20260830163948 90 241 5.0 8.0 0.00 0.00 0.00 44 1017.8
20260830163431 90 245 3.0 6.0 0.00 0.00 0.00 47 1017.8
20260830163035 89 135 3.0 10.0 0.00 0.00 0.00 48 1016.2
20260830162944 89 212 4.0 10.0 0.00 0.00 0.00 47 1017.8
20260830162424 89 258 5.0 10.0 0.00 0.00 0.00 46 1017.9
20260830161937 89 235 5.0 8.0 0.00 0.00 0.00 47 1017.9
20260830161535 88 266 5.0 10.0 0.00 0.00 0.00 49 1016.3
20260830161422 88 248 5.0 10.0 0.00 0.00 0.00 49 1017.9
20260830160934 88 239 5.0 10.0 0.00 0.00 0.00 47 1017.8
20260830160437 88 194 4.0 7.0 0.00 0.00 0.00 50 1017.9
20260830160020 87 219 4.0 8.0 0.00 0.00 0.00 52 1016.4
20260830155926 88 228 3.0 8.0 0.00 0.00 0.00 54 1018.0
20260830155429 87 251 4.0 8.0 0.00 0.00 0.00 53 1018.0
20260830154941 86 237 3.0 6.0 0.00 0.00 0.00 56 1017.9
20260830154533 85 249 4.0 7.0 0.00 0.00 0.00 55 1016.5
20260830154430 85 245 4.0 7.0 0.00 0.00 0.00 54 1018.1
20260830153957 85 238 4.0 10.0 0.00 0.00 0.00 55 1018.1
20260830153448 85 230 5.0 10.0 0.00 0.00 0.00 55 1018.1
20260830153039 84 233 4.0 8.0 0.00 0.00 0.00 56 1016.6
20260830152940 84 247 5.0 8.0 0.00 0.00 0.00 56 1018.1
20260830152420 84 271 3.0 6.0 0.00 0.00 0.00 56 1018.0
20260830151932 84 245 4.0 8.0 0.00 0.00 0.00 56 1018.0
20260830151550 83 239 4.0 8.0 0.00 0.00 0.00 56 1016.5
20260830151444 84 210 4.0 8.0 0.00 0.00 0.00 56 1018.1
20260830150944 83 250 3.0 6.0 0.00 0.00 0.00 57 1018.0
20260830150436 83 239 4.0 6.0 0.00 0.00 0.00 57 1018.0
20260830150038 82 240 3.0 6.0 0.00 0.00 0.00 57 1016.4
20260830145926 83 229 3.0 5.0 0.00 0.00 0.00 57 1017.9
20260830145456 82 231 2.0 5.0 0.00 0.00 0.00 59 1018.0
20260830144938 81 252 3.0 5.0 0.00 0.00 0.00 58 1018.0
20260830144516 81 242 3.0 7.0 0.00 0.00 0.00 58 1016.5
20260830144448 81 245 3.0 7.0 0.00 0.00 0.00 58 1018.0
20260830143938 81 240 3.0 6.0 0.00 0.00 0.00 58 1018.1
20260830143445 80 241 3.0 6.0 0.00 0.00 0.00 59 1018.1
20260830143045 80 213 3.0 6.0 0.00 0.00 0.00 60 1016.7
20260830142925 80 254 3.0 6.0 0.00 0.00 0.00 60 1018.2
20260830142437 80 250 3.0 5.0 0.00 0.00 0.00 60 1018.2
20260830141928 79 232 2.0 7.0 0.00 0.00 0.00 61 1018.2
20260830141553 78 234 2.0 7.0 0.00 0.00 0.00 61 1016.7
20260830141458 79 235 3.0 7.0 0.00 0.00 0.00 62 1018.2
20260830141008 78 246 3.0 4.0 0.00 0.00 0.00 65 1018.1
20260830140429 78 242 2.0 4.0 0.00 0.00 0.00 65 1018.1
20260830140020 77 251 2.0 4.0 0.00 0.00 0.00 65 1016.7
20260830135941 78 229 2.0 4.0 0.00 0.00 0.00 64 1018.2
20260830135421 77 253 3.0 4.0 0.00 0.00 0.00 64 1018.2
20260830135003 77 231 2.0 3.0 0.00 0.00 0.00 65 1018.1
20260830134506 76 238 2.0 3.0 0.00 0.00 0.00 65 1016.5
20260830134422 76 238 2.0 3.0 0.00 0.00 0.00 64 1018.1
20260830133934 76 216 2.0 3.0 0.00 0.00 0.00 65 1018.0
20260830133506 76 231 1.0 3.0 0.00 0.00 0.00 65 1018.1
20260830133057 75 236 1.0 2.0 0.00 0.00 0.00 65 1016.7
20260830132926 75 238 2.0 2.0 0.00 0.00 0.00 65 1018.1
20260830132433 75 233 2.0 2.0 0.00 0.00 0.00 65 1018.1
20260830131944 75 240 2.0 2.0 0.00 0.00 0.00 65 1018.1
20260830131603 74 240 1.0 3.0 0.00 0.00 0.00 65 1016.5
20260830131424 74 240 2.0 3.0 0.00 0.00 0.00 65 1018.1
20260830130936 74 240 3.0 3.0 0.00 0.00 0.00 65 1018.1
20260830130427 74 240 2.0 2.0 0.00 0.00 0.00 65 1018.0
20260830130051 74 242 1.0 3.0 0.00 0.00 0.00 65 1016.5
20260830125928 74 242 2.0 3.0 0.00 0.00 0.00 65 1018.0
20260830125420 74 238 2.0 3.0 0.00 0.00 0.00 65 1018.1
20260830124933 74 238 2.0 3.0 0.00 0.00 0.00 65 1018.1
20260830124502 73 238 2.0 3.0 0.00 0.00 0.00 65 1016.5
20260830124421 74 237 3.0 3.0 0.00 0.00 0.00 65 1018.0
20260830123932 74 237 2.0 3.0 0.00 0.00 0.00 65 1017.9
20260830123435 74 237 3.0 3.0 0.00 0.00 0.00 64 1017.9
20260830123010 74 237 2.0 3.0 0.00 0.00 0.00 64 1016.4
20260830122925 74 237 3.0 3.0 0.00 0.00 0.00 64 1017.9
20260830122437 74 236 3.0 3.0 0.00 0.00 0.00 64 1017.8
20260830121940 74 235 2.0 3.0 0.00 0.00 0.00 64 1017.7
20260830121521 74 235 2.0 3.0 0.00 0.00 0.00 64 1016.2
20260830121430 74 235 2.0 3.0 0.00 0.00 0.00 64 1017.7
20260830120942 74 234 2.0 3.0 0.00 0.00 0.00 64 1017.7
20260830120442 74 236 2.0 2.0 0.00 0.00 0.00 64 1017.7
20260830120024 73 231 2.0 2.0 0.00 0.00 0.00 65 1016.3
20260830115931 74 226 2.0 2.0 0.00 0.00 0.00 65 1017.7
20260830115444 73 226 2.0 2.0 0.00 0.00 0.00 66 1017.6
20260830114925 73 229 2.0 2.0 0.00 0.00 0.00 67 1017.6
20260830114531 73 242 1.0 2.0 0.00 0.00 0.00 67 1016.0
20260830114430 73 242 2.0 2.0 0.00 0.00 0.00 67 1017.5
20260830113933 74 243 2.0 2.0 0.00 0.00 0.00 66 1017.4
20260830113424 73 243 1.0 2.0 0.00 0.00 0.00 66 1017.3
20260830113038 73 243 1.0 2.0 0.00 0.00 0.00 66 1015.9
20260830112954 73 244 2.0 2.0 0.00 0.00 0.00 66 1017.3
20260830112445 73 245 2.0 2.0 0.00 0.00 0.00 67 1017.3
20260830111934 73 236 2.0 2.0 0.00 0.00 0.00 67 1017.2
20260830111548 72 236 2.0 2.0 0.00 0.00 0.00 67 1015.7
20260830111446 73 236 2.0 2.0 0.00 0.00 0.00 68 1017.1
20260830110927 72 236 2.0 2.0 0.00 0.00 0.00 69 1017.1
20260830110439 72 236 1.0 2.0 0.00 0.00 0.00 68 1017.0
20260830110058 72 236 1.0 2.0 0.00 0.00 0.00 68 1015.5
20260830105941 73 236 1.0 2.0 0.00 0.00 0.00 67 1017.0
20260830105431 73 236 1.0 2.0 0.00 0.00 0.00 67 1017.0
20260830104942 72 236 2.0 2.0 0.00 0.00 0.00 68 1016.9
20260830104603 72 236 1.0 2.0 0.00 0.00 0.00 68 1015.6
20260830104422 72 236 1.0 2.0 0.00 0.00 0.00 68 1017.1
20260830103934 73 236 2.0 2.0 0.00 0.00 0.00 67 1017.0
20260830103446 74 236 2.0 3.0 0.00 0.00 0.00 65 1016.8
20260830103049 74 233 1.0 4.0 0.00 0.00 0.00 64 1015.3
20260830102921 74 233 2.0 4.0 0.00 0.00 0.00 64 1016.8
20260830102431 74 231 3.0 5.0 0.00 0.00 0.00 64 1016.7
20260830101943 75 217 3.0 6.0 0.00 0.00 0.00 64 1016.7
20260830101557 74 230 3.0 6.0 0.00 0.00 0.00 64 1015.1
20260830101425 75 218 3.0 5.0 0.00 0.00 0.00 64 1016.6
20260830100935 75 221 3.0 5.0 0.00 0.00 0.00 64 1016.5
20260830100442 75 229 3.0 6.0 0.00 0.00 0.00 64 1016.6
20260830100122 74 225 3.0 6.0 0.00 0.00 0.00 64 1015.1
20260830095922 75 193 4.0 6.0 0.00 0.00 0.00 64 1016.6
20260830095454 75 221 3.0 6.0 0.00 0.00 0.00 64 1016.5
20260830094924 75 186 4.0 6.0 0.00 0.00 0.00 64 1016.6
20260830094547 74 217 4.0 6.0 0.00 0.00 0.00 64 1015.1
20260830094424 75 236 4.0 6.0 0.00 0.00 0.00 64 1016.6
20260830093936 75 180 3.0 5.0 0.00 0.00 0.00 63 1016.6
20260830093427 76 246 4.0 6.0 0.00 0.00 0.00 63 1016.5
20260830093052 75 206 3.0 8.0 0.00 0.00 0.00 62 1015.0
20260830092927 76 256 4.0 8.0 0.00 0.00 0.00 62 1016.5
20260830092439 76 250 4.0 8.0 0.00 0.00 0.00 62 1016.6
20260830091950 76 158 5.0 7.0 0.00 0.00 0.00 62 1016.6
20260830091542 76 228 3.0 6.0 0.00 0.00 0.00 61 1015.2
20260830091440 76 214 4.0 6.0 0.00 0.00 0.00 61 1016.7
20260830090936 77 198 3.0 6.0 0.00 0.00 0.00 61 1016.7
20260830090428 77 191 3.0 7.0 0.00 0.00 0.00 60 1016.8
20260830090047 76 222 4.0 7.0 0.00 0.00 0.00 60 1015.2
20260830085928 77 224 4.0 6.0 0.00 0.00 0.00 60 1016.7
20260830085440 77 172 4.0 6.0 0.00 0.00 0.00 60 1016.7
20260830084931 77 197 2.0 4.0 0.00 0.00 0.00 59 1016.7
20260830084554 77 206 2.0 4.0 0.00 0.00 0.00 58 1015.3
20260830084431 78 188 2.0 5.0 0.00 0.00 0.00 58 1016.7
20260830084013 78 172 3.0 5.0 0.00 0.00 0.00 58 1016.8
20260830083430 78 181 3.0 6.0 0.00 0.00 0.00 58 1016.7
20260830083038 77 211 2.0 6.0 0.00 0.00 0.00 58 1015.2
20260830082942 78 223 3.0 6.0 0.00 0.00 0.00 58 1016.7
20260830082441 78 239 2.0 5.0 0.00 0.00 0.00 58 1016.7
20260830081933 77 181 2.0 5.0 0.00 0.00 0.00 58 1016.8
20260830081550 77 181 2.0 4.0 0.00 0.00 0.00 59 1015.3
20260830081444 77 180 2.0 4.0 0.00 0.00 0.00 59 1016.8
20260830080924 77 205 2.0 4.0 0.00 0.00 0.00 59 1016.8
20260830080436 77 186 3.0 4.0 0.00 0.00 0.00 60 1016.8
20260830080053 76 229 2.0 5.0 0.00 0.00 0.00 60 1015.3
20260830075948 77 229 3.0 5.0 0.00 0.00 0.00 61 1016.8
20260830075429 76 198 3.0 6.0 0.00 0.00 0.00 62 1017.0
20260830074941 76 186 3.0 5.0 0.00 0.00 0.00 62 1016.9
20260830074557 76 217 2.0 5.0 0.00 0.00 0.00 62 1015.4
20260830074422 76 213 2.0 6.0 0.00 0.00 0.00 62 1016.9
20260830073950 76 210 3.0 6.0 0.00 0.00 0.00 62 1016.9
20260830073440 76 181 3.0 6.0 0.00 0.00 0.00 62 1016.8
20260830073049 76 188 3.0 6.0 0.00 0.00 0.00 62 1015.4
20260830072952 76 209 3.0 6.0 0.00 0.00 0.00 62 1016.9
20260830072434 76 169 4.0 8.0 0.00 0.00 0.00 61 1017.0
20260830071945 76 207 4.0 8.0 0.00 0.00 0.00 61 1017.0
20260830071538 76 207 3.0 7.0 0.00 0.00 0.00 61 1015.6
20260830071434 76 234 3.0 7.0 0.00 0.00 0.00 61 1017.0
20260830070936 77 201 3.0 7.0 0.00 0.00 0.00 60 1017.0
20260830070427 77 232 3.0 5.0 0.00 0.00 0.00 60 1017.0
20260830070041 77 264 2.0 5.0 0.00 0.00 0.00 59 1015.5
20260830065957 77 220 3.0 6.0 0.00 0.00 0.00 59 1017.1
20260830065447 78 249 3.0 6.0 0.00 0.00 0.00 58 1017.1
20260830064949 78 225 3.0 7.0 0.00 0.00 0.00 58 1017.1
20260830064508 77 221 3.0 7.0 0.00 0.00 0.00 58 1015.6
20260830064440 78 258 3.0 7.0 0.00 0.00 0.00 58 1017.1
20260830063949 78 208 4.0 6.0 0.00 0.00 0.00 58 1017.1
20260830063439 78 243 3.0 6.0 0.00 0.00 0.00 58 1017.1
20260830063106 77 263 3.0 5.0 0.00 0.00 0.00 57 1015.5
20260830062935 78 184 3.0 5.0 0.00 0.00 0.00 57 1017.1
20260830062446 78 248 2.0 7.0 0.00 0.00 0.00 57 1017.1
20260830061937 78 254 3.0 6.0 0.00 0.00 0.00 57 1017.1
20260830061543 78 262 2.0 5.0 0.00 0.00 0.00 57 1015.7
20260830061448 78 233 3.0 5.0 0.00 0.00 0.00 57 1017.2
20260830060929 78 206 2.0 6.0 0.00 0.00 0.00 57 1017.1
20260830060440 78 205 3.0 6.0 0.00 0.00 0.00 56 1017.1
20260830060051 78 212 2.0 6.0 0.00 0.00 0.00 57 1015.7
20260830055951 78 204 2.0 6.0 0.00 0.00 0.00 57 1017.2
20260830055432 78 228 3.0 5.0 0.00 0.00 0.00 57 1017.1
20260830054944 78 215 3.0 5.0 0.00 0.00 0.00 56 1017.1
20260830054558 78 273 2.0 5.0 0.00 0.00 0.00 56 1015.6
20260830054454 79 229 3.0 6.0 0.00 0.00 0.00 56 1017.1
20260830054003 79 213 3.0 6.0 0.00 0.00 0.00 55 1017.0
20260830053425 79 217 3.0 6.0 0.00 0.00 0.00 55 1017.0
20260830053022 79 231 2.0 6.0 0.00 0.00 0.00 54 1015.5
20260830052935 79 236 2.0 6.0 0.00 0.00 0.00 54 1017.0
20260830052446 80 190 3.0 6.0 0.00 0.00 0.00 54 1017.0
20260830051928 80 191 2.0 5.0 0.00 0.00 0.00 54 1016.9
20260830051509 80 203 2.0 6.0 0.00 0.00 0.00 54 1015.4
20260830051454 80 236 2.0 6.0 0.00 0.00 0.00 54 1017.0
20260830050924 80 184 3.0 6.0 0.00 0.00 0.00 53 1017.0
20260830050436 80 239 2.0 4.0 0.00 0.00 0.00 53 1017.0
20260830050101 80 226 1.0 4.0 0.00 0.00 0.00 53 1015.6
20260830045946 81 219 2.0 4.0 0.00 0.00 0.00 53 1017.0
20260830045442 81 229 2.0 4.0 0.00 0.00 0.00 53 1017.1
20260830044934 81 224 3.0 4.0 0.00 0.00 0.00 53 1017.1
20260830044550 80 160 3.0 4.0 0.00 0.00 0.00 53 1015.5
20260830044423 81 230 3.0 4.0 0.00 0.00 0.00 53 1017.0
20260830043925 81 221 3.0 4.0 0.00 0.00 0.00 53 1017.0
20260830043438 81 199 3.0 4.0 0.00 0.00 0.00 53 1017.0
20260830043026 80 184 1.0 4.0 0.00 0.00 0.00 53 1015.5
20260830042927 81 210 2.0 4.0 0.00 0.00 0.00 53 1017.0
20260830042430 81 188 3.0 4.0 0.00 0.00 0.00 53 1017.0
20260830041942 81 209 2.0 3.0 0.00 0.00 0.00 53 1017.0
20260830041548 80 233 1.0 4.0 0.00 0.00 0.00 53 1015.4
20260830041432 81 175 2.0 4.0 0.00 0.00 0.00 53 1016.9
20260830041004 80 236 2.0 4.0 0.00 0.00 0.00 53 1017.0
20260830040425 80 171 2.0 4.0 0.00 0.00 0.00 54 1017.0
20260830040023 80 211 2.0 4.0 0.00 0.00 0.00 54 1015.6
20260830035931 80 168 1.0 4.0 0.00 0.00 0.00 54 1017.0
20260830035443 80 242 2.0 4.0 0.00 0.00 0.00 54 1017.0
20260830034925 80 227 2.0 6.0 0.00 0.00 0.00 53 1017.0
20260830034529 80 233 2.0 6.0 0.00 0.00 0.00 53 1015.5
20260830034435 81 207 2.0 6.0 0.00 0.00 0.00 53 1017.0
20260830033938 81 158 2.0 6.0 0.00 0.00 0.00 53 1017.0
20260830033428 81 191 2.0 6.0 0.00 0.00 0.00 53 1017.0
20260830033016 80 213 3.0 7.0 0.00 0.00 0.00 53 1015.5
20260830032938 81 213 3.0 7.0 0.00 0.00 0.00 53 1017.0
20260830032449 81 211 3.0 7.0 0.00 0.00 0.00 53 1017.0
20260830031932 81 255 3.0 7.0 0.00 0.00 0.00 53 1017.0
20260830031525 80 186 3.0 8.0 0.00 0.00 0.00 53 1015.5
20260830031504 81 219 3.0 8.0 0.00 0.00 0.00 53 1017.0
20260830030933 81 274 3.0 8.0 0.00 0.00 0.00 53 1017.0
20260830030436 81 176 4.0 7.0 0.00 0.00 0.00 52 1016.9
20260830030012 81 235 2.0 7.0 0.00 0.00 0.00 52 1015.4
20260830025945 81 134 2.0 7.0 0.00 0.00 0.00 53 1017.0
20260830025436 81 217 3.0 7.0 0.00 0.00 0.00 53 1017.0
20260830024948 82 240 3.0 7.0 0.00 0.00 0.00 53 1016.9
20260830024540 81 174 3.0 6.0 0.00 0.00 0.00 52 1015.4
20260830024423 82 140 3.0 6.0 0.00 0.00 0.00 52 1017.0
20260830023935 82 213 3.0 6.0 0.00 0.00 0.00 52 1016.8
20260830023426 82 197 3.0 6.0 0.00 0.00 0.00 52 1016.8
20260830023104 81 236 2.0 6.0 0.00 0.00 0.00 52 1015.4
20260830022956 82 206 2.0 6.0 0.00 0.00 0.00 52 1016.9
20260830022446 82 237 2.0 6.0 0.00 0.00 0.00 51 1016.8
20260830021928 82 99 1.0 7.0 0.00 0.00 0.00 51 1016.8
20260830021535 82 227 1.0 7.0 0.00 0.00 0.00 51 1015.3
20260830021438 82 269 2.0 7.0 0.00 0.00 0.00 51 1016.7
20260830020941 82 209 2.0 7.0 0.00 0.00 0.00 51 1016.7
20260830020432 82 173 2.0 7.0 0.00 0.00 0.00 52 1016.7
20260830020044 81 266 2.0 5.0 0.00 0.00 0.00 52 1015.1
20260830015943 82 176 2.0 5.0 0.00 0.00 0.00 52 1016.6
20260830015424 82 60 2.0 7.0 0.00 0.00 0.00 52 1016.5
20260830014936 82 190 2.0 7.0 0.00 0.00 0.00 51 1016.4
20260830014550 82 176 1.0 7.0 0.00 0.00 0.00 51 1014.8